When you browse on this site, cookies collect data to enhance your experience and personalize the content and advertising you see.
Visit our Privacy Policy to learn more. By continuing to use the site, you agree to this use of cookies and data.
  • In Hungary
  • List of Countries
  • For 7 days
  • Water Temperature
  • Weather Map
  • News
  • Weather Widgets
  • user-avatar
    Login

    Hourly Weather Bolshoe Churaevo

    Today, 20 October, Sunday

    Time Temperature Precipitation Wind Pressure Humidity
    00:00 -2°C° 0 mm 8 mps 749 mmHg 80%
    01:00 -2°C° 0 mm 8 mps 749 mmHg 79%
    02:00 -4°C° 0 mm 8 mps 750 mmHg 78%
    03:00 -4°C° 0 mm 8 mps 750 mmHg 78%
    04:00 -6°C° 0 mm 8 mps 751 mmHg 73%
    05:00 -6°C° 0 mm 8 mps 751 mmHg 72%
    06:00 -6°C° 0 mm 7 mps 752 mmHg 71%
    07:00 -6°C° 0 mm 7 mps 752 mmHg 69%
    08:00 -4°C° 0 mm 7 mps 752 mmHg 64%
    09:00 -3°C° 0 mm 7 mps 752 mmHg 59%
    10:00 -3°C° 0 mm 7 mps 753 mmHg 56%
    11:00 -2°C° 0 mm 7 mps 753 mmHg 53%
    12:00 -1°C° 0 mm 6 mps 752 mmHg 50%
    13:00 +1°C° 0 mm 6 mps 752 mmHg 47%
    14:00 -1°C° 0 mm 6 mps 752 mmHg 47%
    15:00 0°C° 0 mm 5 mps 753 mmHg 48%
    16:00 0°C° 0 mm 5 mps 753 mmHg 48%
    17:00 -1°C° 0 mm 4 mps 753 mmHg 52%
    18:00 -2°C° 0 mm 4 mps 753 mmHg 56%
    19:00 -3°C° 0 mm 4 mps 753 mmHg 60%
    20:00 -3°C° 0 mm 4 mps 753 mmHg 60%
    21:00 -3°C° 0 mm 4 mps 753 mmHg 60%
    22:00 -3°C° 0 mm 4 mps 753 mmHg 60%
    23:00 -2°C° 0 mm 3 mps 754 mmHg 61%

    Tomorrow, 21 October, Monday

    Time Temperature Precipitation Wind Pressure Humidity
    00:00 -4°C° 0 mm 3 mps 754 mmHg 61%
    01:00 -4°C° 0 mm 3 mps 754 mmHg 62%
    02:00 -3°C° 0 mm 2 mps 754 mmHg 63%
    03:00 -3°C° 0 mm 2 mps 754 mmHg 63%
    04:00 -2°C° 0 mm 1 mps 754 mmHg 64%
    05:00 -2°C° 0 mm 1 mps 754 mmHg 63%
    06:00 -2°C° 0 mm 1 mps 754 mmHg 63%
    07:00 -2°C° 0 mm 1 mps 754 mmHg 63%
    08:00 0°C° 0 mm 1 mps 754 mmHg 56%
    09:00 -1°C° 0 mm 2 mps 753 mmHg 49%
    10:00 +1°C° 0 mm 2 mps 753 mmHg 42%
    11:00 +2°C° 0 mm 2 mps 753 mmHg 39%
    12:00 +3°C° 0 mm 2 mps 753 mmHg 37%
    13:00 +4°C° 0 mm 2 mps 753 mmHg 34%
    14:00 +4°C° 0 mm 2 mps 753 mmHg 37%
    15:00 +4°C° 0 mm 2 mps 752 mmHg 40%
    16:00 +4°C° 0 mm 1 mps 752 mmHg 43%
    17:00 +4°C° 0 mm 1 mps 752 mmHg 45%
    18:00 +3°C° 0 mm 1 mps 752 mmHg 47%
    19:00 +2°C° 0 mm 1 mps 752 mmHg 48%
    20:00 +2°C° 0 mm 1 mps 752 mmHg 49%
    21:00 +2°C° 0 mm 1 mps 751 mmHg 50%
    22:00 -1°C° 0 mm 2 mps 751 mmHg 51%
    23:00 -1°C° 0 mm 2 mps 751 mmHg 52%

    Day after tomorrow, 22 October, Tuesday

    Time Temperature Precipitation Wind Pressure Humidity
    00:00 -1°C° 0 mm 2 mps 750 mmHg 54%
    01:00 -1°C° 0 mm 2 mps 750 mmHg 55%
    02:00 -1°C° 0 mm 2 mps 749 mmHg 56%
    03:00 -1°C° 0 mm 2 mps 749 mmHg 57%
    04:00 -1°C° 0 mm 2 mps 749 mmHg 58%
    05:00 -1°C° 0 mm 2 mps 749 mmHg 60%
    06:00 -1°C° 0 mm 2 mps 748 mmHg 62%
    07:00 -1°C° 0 mm 3 mps 748 mmHg 64%
    08:00 0°C° 0 mm 3 mps 748 mmHg 62%
    09:00 0°C° 0 mm 4 mps 747 mmHg 60%
    10:00 +3°C° 0 mm 4 mps 747 mmHg 58%
    11:00 +3°C° 0 mm 5 mps 747 mmHg 56%
    12:00 +5°C° 0 mm 5 mps 746 mmHg 53%
    13:00 +5°C° 0 mm 6 mps 746 mmHg 51%
    14:00 +6°C° 0 mm 5 mps 746 mmHg 52%
    15:00 +6°C° 0 mm 5 mps 745 mmHg 54%
    16:00 +6°C° 0 mm 5 mps 745 mmHg 55%
    17:00 +6°C° 0 mm 4 mps 745 mmHg 58%
    18:00 +5°C° 0 mm 4 mps 745 mmHg 60%
    19:00 +5°C° 0 mm 4 mps 745 mmHg 63%
    20:00 +5°C° 0.3 mm 4 mps 745 mmHg 70%
    21:00 +4°C° 0.3 mm 4 mps 744 mmHg 78%
    22:00 +4°C° 0.3 mm 3 mps 744 mmHg 86%
    23:00 +4°C° 0.2 mm 3 mps 744 mmHg 89%

    23 October, Wednesday

    Time Temperature Precipitation Wind Pressure Humidity
    00:00 +4°C° 0.2 mm 3 mps 744 mmHg 92%
    01:00 +4°C° 0.2 mm 3 mps 744 mmHg 95%
    02:00 +4°C° 0 mm 3 mps 744 mmHg 95%
    03:00 +5°C° 0 mm 2 mps 744 mmHg 94%
    04:00 +5°C° 0 mm 2 mps 744 mmHg 94%
    05:00 +5°C° 0 mm 2 mps 744 mmHg 94%
    06:00 +5°C° 0 mm 2 mps 744 mmHg 93%
    07:00 +6°C° 0 mm 1 mps 744 mmHg 92%
    08:00 +6°C° 0 mm 2 mps 745 mmHg 86%
    09:00 +6°C° 0 mm 2 mps 745 mmHg 79%
    10:00 +6°C° 0 mm 2 mps 745 mmHg 73%
    11:00 +7°C° 0 mm 2 mps 745 mmHg 67%
    12:00 +8°C° 0 mm 2 mps 745 mmHg 61%
    13:00 +8°C° 0 mm 2 mps 745 mmHg 55%
    14:00 +8°C° 0 mm 3 mps 745 mmHg 57%
    15:00 +8°C° 0 mm 3 mps 745 mmHg 59%
    16:00 +8°C° 0 mm 3 mps 745 mmHg 60%
    17:00 +7°C° 0 mm 3 mps 745 mmHg 66%
    18:00 +4°C° 0 mm 3 mps 745 mmHg 71%
    19:00 +4°C° 0 mm 2 mps 745 mmHg 77%
    20:00 +4°C° 0 mm 2 mps 745 mmHg 78%
    21:00 +4°C° 0 mm 2 mps 745 mmHg 79%
    22:00 +3°C° 0 mm 2 mps 745 mmHg 80%
    23:00 +3°C° 0 mm 2 mps 745 mmHg 80%

    24 October, Thursday

    Time Temperature Precipitation Wind Pressure Humidity
    00:00 +2°C° 0 mm 3 mps 745 mmHg 79%
    01:00 +2°C° 0 mm 3 mps 745 mmHg 79%
    02:00 +2°C° 0 mm 3 mps 745 mmHg 81%
    03:00 +1°C° 0 mm 4 mps 745 mmHg 82%
    04:00 +1°C° 0 mm 4 mps 745 mmHg 83%
    05:00 +1°C° 0 mm 4 mps 745 mmHg 85%
    06:00 +3°C° 0 mm 4 mps 744 mmHg 87%
    07:00 +3°C° 0 mm 4 mps 744 mmHg 89%
    08:00 +2°C° 0 mm 5 mps 744 mmHg 87%
    09:00 +3°C° 0 mm 5 mps 744 mmHg 85%
    10:00 +3°C° 0 mm 6 mps 744 mmHg 82%
    11:00 +5°C° 0 mm 5 mps 745 mmHg 79%
    12:00 +7°C° 0 mm 5 mps 745 mmHg 76%
    13:00 +8°C° 0 mm 5 mps 745 mmHg 73%
    14:00 +8°C° 0 mm 4 mps 745 mmHg 75%
    15:00 +7°C° 0 mm 4 mps 745 mmHg 76%
    16:00 +7°C° 0 mm 4 mps 745 mmHg 78%
    17:00 +8°C° 0 mm 3 mps 745 mmHg 81%
    18:00 +7°C° 0 mm 2 mps 746 mmHg 84%
    19:00 +7°C° 0 mm 2 mps 746 mmHg 87%
    20:00 +7°C° 0 mm 2 mps 746 mmHg 88%
    21:00 +7°C° 0 mm 2 mps 746 mmHg 89%
    22:00 +7°C° 0 mm 2 mps 746 mmHg 89%
    23:00 +8°C° 0 mm 1 mps 747 mmHg 91%

    25 October, Friday

    Time Temperature Precipitation Wind Pressure Humidity
    00:00 +8°C° 0 mm 1 mps 747 mmHg 92%
    01:00 +7°C° 0 mm 1 mps 747 mmHg 93%
    02:00 +7°C° 0 mm 1 mps 747 mmHg 93%
    03:00 +7°C° 0 mm 1 mps 747 mmHg 93%
    04:00 +7°C° 0 mm 1 mps 747 mmHg 93%
    05:00 +7°C° 0 mm 1 mps 747 mmHg 93%
    06:00 +7°C° 0 mm 1 mps 747 mmHg 93%
    07:00 +7°C° 0 mm 1 mps 747 mmHg 94%
    08:00 +8°C° 0 mm 1 mps 748 mmHg 90%
    09:00 +8°C° 0 mm 2 mps 748 mmHg 86%
    10:00 +10°C° 0 mm 2 mps 748 mmHg 82%
    11:00 +10°C° 0 mm 3 mps 748 mmHg 79%
    12:00 +11°C° 0 mm 3 mps 748 mmHg 76%
    13:00 +12°C° 0 mm 4 mps 748 mmHg 74%
    14:00 +12°C° 0 mm 3 mps 748 mmHg 75%
    15:00 +12°C° 0 mm 3 mps 748 mmHg 76%
    16:00 +12°C° 0 mm 3 mps 748 mmHg 78%
    17:00 +12°C° 0 mm 2 mps 748 mmHg 82%
    18:00 +10°C° 0 mm 2 mps 748 mmHg 86%
    19:00 +9°C° 0 mm 2 mps 748 mmHg 89%
    20:00 +9°C° 0 mm 2 mps 748 mmHg 90%
    21:00 +9°C° 0 mm 2 mps 748 mmHg 90%
    22:00 +8°C° 0 mm 2 mps 748 mmHg 91%
    23:00 +8°C° 0 mm 2 mps 748 mmHg 90%
    Show more